Weather History for PHNG - December, 2013

Change the Weather History Date:

Monday, December 30, 2013

  Actual Average Record
Temperature  
Mean Temperature 74 °F -  
Max Temperature 77 °F 76 °F 82 °F (2003)
Min Temperature 71 °F 66 °F 64 °F (1997)
Cooling Degree Days 9    
Growing Degree Days 24 (Base 50)    
Moisture  
Dew Point 61 °F    
Average Humidity 63    
Maximum Humidity 73    
Minimum Humidity 54    
Precipitation  
Precipitation 0.00 in - - ()
Sea Level Pressure  
Sea Level Pressure 29.99 in    
Wind  
Wind Speed 8 mph (NE)    
Max Wind Speed 12 mph    
Max Gust Speed 20 mph    
Visibility 7 miles    
Events Rain    
Averages and records for this station are not official NWS values.
T = Trace of Precipitation, MM = Missing Value Source: NWS Daily Summary

Daily Weather History Graph

Daily Weather History Graph

Search for Another Location

Airport or City:

Trip Planner

Search our weather history database for the weather conditions in past years. The results will help you decide how hot, cold, wet, or windy it might be!

Date:

Astronomy

Dec. 30, 2013 Rise Set
Actual Time 7:08 AM HST 5:59 PM HST
Civil Twilight 6:44 AM HST 6:23 PM HST
Nautical Twilight 6:16 AM HST 6:51 PM HST
Astronomical Twilight 5:49 AM HST 7:18 PM HST
Moon 5:16 AM HST (12/30) 4:38 PM HST (12/30)
Length of Visible Light 11h 39m
Length of Day
10h 50m
Waning Crescent, 4% of the Moon is Illuminated
Dec 30
Waning Crescent
Jan 1
New
Jan 7
First Quarter
Jan 15
Full
Jan 23
Last Quarter

Hourly Weather History & Observations

Time (HST) Temp. Dew Point Humidity Pressure Visibility Wind Dir Wind Speed Gust Speed Precip Events Conditions
12:57 AM 73.4 °F 61.0 °F 65% 30.00 in 7.0 mi ENE 10.4 mph 18.4 mph N/A   Mostly Cloudy
1:57 AM 73.4 °F 60.1 °F 63% 29.99 in 7.0 mi NE 11.5 mph 18.4 mph N/A   Mostly Cloudy
2:57 AM 71.6 °F 60.1 °F 67% 29.97 in 7.0 mi NE 8.1 mph - N/A   Mostly Cloudy
3:57 AM 71.6 °F 60.1 °F 67% 29.96 in 7.0 mi NE 10.4 mph 17.3 mph N/A   Scattered Clouds
4:57 AM 71.6 °F 60.1 °F 67% 29.96 in 7.0 mi NE 9.2 mph - N/A   Mostly Cloudy
5:57 AM 71.6 °F 60.1 °F 67% 29.96 in 7.0 mi NE 10.4 mph 17.3 mph N/A   Mostly Cloudy
6:57 AM 71.6 °F 61.0 °F 69% 29.96 in 7.0 mi NE 9.2 mph 19.6 mph N/A   Mostly Cloudy
7:57 AM 72.7 °F 61.0 °F 67% 29.99 in 7.0 mi ENE 9.2 mph - N/A   Mostly Cloudy
8:57 AM 73.4 °F 61.0 °F 65% 30.00 in 7.0 mi NE 10.4 mph - N/A   Overcast
9:57 AM 75.2 °F 60.1 °F 59% 30.01 in 7.0 mi ENE 11.5 mph 16.1 mph N/A   Overcast
10:57 AM 77.0 °F 60.1 °F 56% 30.01 in 7.0 mi NE 9.2 mph - N/A   Mostly Cloudy
11:57 AM 77.0 °F 60.1 °F 56% 29.99 in 7.0 mi ENE 4.6 mph - N/A   Overcast
12:57 PM 77.0 °F 60.1 °F 56% 29.98 in 7.0 mi NE 6.9 mph - N/A   Overcast
1:57 PM 77.0 °F 60.1 °F 56% 29.96 in 7.0 mi WNW 6.9 mph - N/A Rain Light Rain
2:57 PM 75.2 °F 61.0 °F 61% 29.94 in 7.0 mi West 5.8 mph - N/A   Overcast
3:57 PM 77.0 °F 62.1 °F 60% 29.94 in 9.0 mi West 5.8 mph - N/A   Overcast
4:57 PM 77.0 °F 61.0 °F 58% 29.95 in 7.0 mi NNE 5.8 mph - N/A   Overcast
5:57 PM 77.0 °F 59.0 °F 54% 29.96 in 8.0 mi NNE 6.9 mph - N/A   Overcast
6:57 PM 75.2 °F 59.0 °F 57% 29.98 in 8.0 mi ENE 6.9 mph - N/A   Overcast
7:57 PM 73.4 °F 60.1 °F 63% 29.99 in 8.0 mi NE 9.2 mph - N/A   Overcast
8:57 PM 73.4 °F 60.1 °F 63% 30.00 in 8.0 mi ENE 8.1 mph - N/A   Overcast
9:57 PM 73.4 °F 60.1 °F 63% 30.01 in 7.0 mi Variable 4.6 mph - N/A Rain Light Rain
10:10 PM 73.4 °F 60.8 °F 65% 30.03 in 2.5 mi East 3.5 mph - N/A Rain Light Rain
10:17 PM 73.4 °F 60.8 °F 65% 30.03 in 5.0 mi ENE 4.6 mph - N/A Rain Light Rain
10:57 PM 73.4 °F 60.1 °F 63% 30.01 in 10.0 mi Variable 4.6 mph - N/A   Overcast
11:13 PM 71.6 °F 62.6 °F 73% 30.03 in 6.2 mi Calm Calm - N/A   Overcast
11:32 PM 71.6 °F 62.6 °F 73% 30.02 in 6.2 mi Variable 3.5 mph - N/A   Overcast
11:57 PM 71.6 °F 62.1 °F 72% 30.00 in 10.0 mi SSE 3.5 mph - N/A   Overcast